| time (UTC) | temp C | wind direction | speed KPH | gust KPH | rain 1hr cm | rain 24hr cm | rain mn cm | humidity % | barometer mb |
| 20260507125247 | 7 | 231 | 6.4 | 11.3 | 0.00 | 0.00 | 0.00 | 67 | 1015.3 |
| 20260507124743 | 7 | 14 | 8.0 | 9.7 | 0.00 | 0.00 | 0.00 | 72 | 1015.2 |
| 20260507124240 | 8 | 112 | 3.2 | 3.2 | 0.00 | 0.00 | 0.00 | 68 | 1014.9 |
| 20260507123738 | 7 | 145 | 1.6 | 3.2 | 0.00 | 0.00 | 0.00 | 71 | 1015.2 |
| 20260507123236 | 7 | 305 | 4.8 | 8.0 | 0.00 | 0.00 | 0.00 | 71 | 1015.0 |
| 20260507122730 | 7 | 146 | 1.6 | 4.8 | 0.00 | 0.00 | 0.00 | 73 | 1015.3 |
| 20260507122227 | 6 | 51 | 3.2 | 4.8 | 0.00 | 0.00 | 0.00 | 73 | 1015.2 |
| 20260507121722 | 7 | 179 | 1.6 | 4.8 | 0.00 | 0.00 | 0.00 | 71 | 1015.1 |
| 20260507121219 | 6 | 345 | 3.2 | 4.8 | 0.00 | 0.00 | 0.00 | 73 | 1015.2 |
| 20260507120715 | 6 | 253 | 6.4 | 8.0 | 0.00 | 0.00 | 0.00 | 72 | 1015.3 |
| 20260507120212 | 7 | 341 | 3.2 | 4.8 | 0.00 | 0.00 | 0.00 | 72 | 1015.1 |
| 20260507115708 | 7 | 235 | 1.6 | 1.6 | 0.00 | 0.00 | 0.00 | 71 | 1015.3 |
| 20260507115204 | 6 | 182 | 0.0 | 1.6 | 0.00 | 0.00 | 0.00 | 74 | 1015.4 |
| 20260507114700 | 6 | 200 | 0.0 | 3.2 | 0.00 | 0.00 | 0.00 | 74 | 1015.4 |
| 20260507114157 | 6 | 191 | 0.0 | 3.2 | 0.00 | 0.00 | 0.00 | 76 | 1015.4 |
| 20260507113655 | 6 | 181 | 1.6 | 4.8 | 0.00 | 0.00 | 0.00 | 77 | 1015.4 |
| 20260507113151 | 6 | 241 | 1.6 | 1.6 | 0.00 | 0.00 | 0.00 | 76 | 1015.1 |
| 20260507112649 | 6 | 231 | 1.6 | 3.2 | 0.00 | 0.00 | 0.00 | 76 | 1015.0 |
| 20260507112145 | 5 | 216 | 1.6 | 4.8 | 0.00 | 0.00 | 0.00 | 78 | 1015.0 |
| 20260507111643 | 5 | 193 | 0.0 | 3.2 | 0.00 | 0.00 | 0.00 | 80 | 1015.1 |
| 20260507111139 | 3 | 211 | 0.0 | 8.0 | 0.00 | 0.00 | 0.00 | 82 | 1014.7 |
| 20260507110636 | 3 | 209 | 1.6 | 3.2 | 0.00 | 0.00 | 0.00 | 83 | 1014.9 |
| 20260507110133 | 3 | 207 | 1.6 | 3.2 | 0.00 | 0.00 | 0.00 | 83 | 1014.3 |
| 20260507105629 | 3 | 209 | 1.6 | 1.6 | 0.00 | 0.00 | 0.00 | 83 | 1014.6 |
| 20260507105125 | 3 | 217 | 1.6 | 3.2 | 0.00 | 0.00 | 0.00 | 84 | 1014.8 |
| 20260507104623 | 3 | 213 | 0.0 | 1.6 | 0.00 | 0.00 | 0.00 | 83 | 1014.4 |
| 20260507104119 | 3 | 213 | 1.6 | 1.6 | 0.00 | 0.00 | 0.00 | 84 | 1014.3 |
| 20260507103615 | 3 | 213 | 1.6 | 3.2 | 0.00 | 0.00 | 0.00 | 84 | 1014.3 |
| 20260507103112 | 3 | 217 | 0.0 | 1.6 | 0.00 | 0.00 | 0.00 | 84 | 1014.6 |
| 20260507102609 | 3 | 217 | 0.0 | 1.6 | 0.00 | 0.00 | 0.00 | 84 | 1014.6 |
| 20260507102105 | 3 | 219 | 0.0 | 1.6 | 0.00 | 0.00 | 0.00 | 84 | 1014.3 |
| 20260507101601 | 3 | 219 | 1.6 | 1.6 | 0.00 | 0.00 | 0.00 | 83 | 1014.2 |
| 20260507101057 | 3 | 223 | 0.0 | 1.6 | 0.00 | 0.00 | 0.00 | 83 | 1014.3 |
| 20260507100554 | 3 | 223 | 0.0 | 1.6 | 0.00 | 0.00 | 0.00 | 83 | 1014.2 |
| 20260507100052 | 3 | 223 | 1.6 | 1.6 | 0.00 | 0.00 | 0.00 | 83 | 1014.2 |
| 20260507095550 | 3 | 223 | 0.0 | 0.0 | 0.00 | 0.00 | 0.00 | 83 | 1014.1 |
| 20260507095047 | 3 | 223 | 1.6 | 1.6 | 0.00 | 0.00 | 0.00 | 83 | 1014.3 |
| 20260507094543 | 3 | 224 | 1.6 | 1.6 | 0.00 | 0.00 | 0.00 | 83 | 1014.2 |
| 20260507094040 | 3 | 223 | 0.0 | 1.6 | 0.00 | 0.00 | 0.00 | 82 | 1013.9 |
| 20260507093537 | 3 | 223 | 1.6 | 1.6 | 0.00 | 0.00 | 0.00 | 81 | 1013.9 |
| 20260507093036 | 3 | 217 | 1.6 | 1.6 | 0.00 | 0.00 | 0.00 | 80 | 1014.1 |
| 20260507092532 | 3 | 217 | 3.2 | 3.2 | 0.00 | 0.00 | 0.00 | 80 | 1014.1 |
| 20260507092029 | 4 | 218 | 1.6 | 3.2 | 0.00 | 0.00 | 0.00 | 79 | 1014.2 |
| 20260507091526 | 4 | 217 | 3.2 | 3.2 | 0.00 | 0.00 | 0.00 | 77 | 1014.2 |
| 20260507091022 | 5 | 215 | 1.6 | 3.2 | 0.00 | 0.00 | 0.00 | 77 | 1014.0 |
| 20260507090517 | 4 | 217 | 1.6 | 1.6 | 0.00 | 0.00 | 0.00 | 77 | 1014.0 |
| 20260507090014 | 5 | 213 | 1.6 | 3.2 | 0.00 | 0.00 | 0.00 | 77 | 1014.2 |
| 20260507085512 | 5 | 235 | 1.6 | 3.2 | 0.00 | 0.00 | 0.00 | 77 | 1014.0 |
| 20260507085008 | 5 | 223 | 1.6 | 1.6 | 0.00 | 0.00 | 0.00 | 78 | 1014.3 |
| 20260507084505 | 5 | 223 | 1.6 | 3.2 | 0.00 | 0.00 | 0.00 | 78 | 1014.1 |
| 20260507084002 | 5 | 219 | 1.6 | 1.6 | 0.00 | 0.00 | 0.00 | 78 | 1014.1 |
| 20260507083458 | 5 | 222 | 0.0 | 1.6 | 0.00 | 0.00 | 0.00 | 77 | 1013.8 |
| 20260507082955 | 5 | 214 | 0.0 | 1.6 | 0.00 | 0.00 | 0.00 | 76 | 1014.1 |
| 20260507082451 | 5 | 209 | 1.6 | 1.6 | 0.00 | 0.00 | 0.00 | 76 | 1014.0 |
| 20260507081947 | 5 | 224 | 1.6 | 1.6 | 0.00 | 0.00 | 0.00 | 76 | 1014.0 |
| 20260507081444 | 5 | 216 | 0.0 | 1.6 | 0.00 | 0.00 | 0.00 | 75 | 1014.1 |
| 20260507080941 | 5 | 227 | 1.6 | 3.2 | 0.00 | 0.00 | 0.00 | 74 | 1013.9 |
| 20260507080437 | 5 | 217 | 1.6 | 3.2 | 0.00 | 0.00 | 0.00 | 76 | 1014.2 |
| 20260507075932 | 5 | 218 | 0.0 | 1.6 | 0.00 | 0.00 | 0.00 | 74 | 1014.0 |
| 20260507075429 | 5 | 236 | 1.6 | 1.6 | 0.00 | 0.00 | 0.00 | 74 | 1014.2 |
| 20260507074926 | 6 | 267 | 3.2 | 3.2 | 0.00 | 0.00 | 0.00 | 74 | 1013.9 |
| 20260507074422 | 6 | 213 | 1.6 | 4.8 | 0.00 | 0.00 | 0.00 | 73 | 1014.0 |
| 20260507073920 | 6 | 216 | 0.0 | 1.6 | 0.00 | 0.00 | 0.00 | 73 | 1013.9 |
| 20260507073416 | 6 | 233 | 0.0 | 4.8 | 0.00 | 0.00 | 0.00 | 73 | 1014.1 |
| 20260507072914 | 6 | 257 | 1.6 | 4.8 | 0.00 | 0.00 | 0.00 | 73 | 1014.2 |
| 20260507072411 | 6 | 233 | 1.6 | 3.2 | 0.00 | 0.00 | 0.00 | 73 | 1014.1 |
| 20260507071909 | 6 | 227 | 0.0 | 3.2 | 0.00 | 0.00 | 0.00 | 73 | 1013.9 |
| 20260507071405 | 6 | 223 | 1.6 | 8.0 | 0.00 | 0.00 | 0.00 | 71 | 1014.0 |
| 20260507070901 | 6 | 226 | 0.0 | 4.8 | 0.00 | 0.00 | 0.00 | 72 | 1014.0 |
| 20260507070359 | 6 | 346 | 3.2 | 3.2 | 0.00 | 0.00 | 0.00 | 73 | 1014.0 |
| 20260507065856 | 6 | 238 | 0.0 | 9.7 | 0.00 | 0.00 | 0.00 | 73 | 1014.0 |
| 20260507065352 | 6 | 230 | 1.6 | 9.7 | 0.00 | 0.00 | 0.00 | 73 | 1013.8 |
| 20260507064849 | 6 | 269 | 4.8 | 12.9 | 0.00 | 0.00 | 0.00 | 74 | 1013.7 |
| 20260507064348 | 6 | 351 | 4.8 | 8.0 | 0.00 | 0.00 | 0.00 | 73 | 1013.9 |
| 20260507063845 | 6 | 268 | 3.2 | 8.0 | 0.00 | 0.00 | 0.00 | 74 | 1013.8 |
| 20260507063342 | 6 | 255 | 1.6 | 4.8 | 0.00 | 0.00 | 0.00 | 73 | 1014.1 |
| 20260507062839 | 6 | 231 | 1.6 | 4.8 | 0.00 | 0.00 | 0.00 | 74 | 1014.2 |
| 20260507062335 | 7 | 227 | 4.8 | 11.3 | 0.00 | 0.00 | 0.00 | 74 | 1014.1 |
| 20260507061834 | 6 | 18 | 1.6 | 3.2 | 0.00 | 0.00 | 0.00 | 76 | 1013.9 |
| 20260507061331 | 6 | 242 | 1.6 | 3.2 | 0.00 | 0.00 | 0.00 | 76 | 1013.9 |
| 20260507060830 | 7 | 243 | 1.6 | 9.7 | 0.00 | 0.00 | 0.00 | 76 | 1013.8 |
| 20260507060326 | 6 | 194 | 3.2 | 8.0 | 0.00 | 0.00 | 0.00 | 76 | 1013.8 |
| 20260507055823 | 6 | 248 | 3.2 | 4.8 | 0.00 | 0.00 | 0.00 | 76 | 1013.6 |
| 20260507055318 | 7 | 238 | 1.6 | 8.0 | 0.00 | 0.00 | 0.00 | 76 | 1013.7 |
| 20260507054815 | 7 | 238 | 0.0 | 8.0 | 0.00 | 0.00 | 0.00 | 76 | 1013.7 |
| 20260507054311 | 7 | 165 | 1.6 | 3.2 | 0.00 | 0.00 | 0.00 | 77 | 1013.8 |
| 20260507053808 | 6 | 207 | 0.0 | 1.6 | 0.00 | 0.00 | 0.00 | 76 | 1013.9 |
| 20260507053306 | 7 | 195 | 3.2 | 3.2 | 0.00 | 0.00 | 0.00 | 76 | 1013.6 |
| 20260507052805 | 7 | 147 | 3.2 | 3.2 | 0.00 | 0.00 | 0.00 | 75 | 1013.7 |
| 20260507052301 | 7 | 204 | 0.0 | 1.6 | 0.00 | 0.00 | 0.00 | 73 | 1013.8 |
| 20260507051759 | 7 | 201 | 0.0 | 1.6 | 0.00 | 0.00 | 0.00 | 72 | 1013.8 |
| 20260507051256 | 7 | 205 | 0.0 | 0.0 | 0.00 | 0.00 | 0.00 | 74 | 1013.8 |
| 20260507050753 | 7 | 203 | 0.0 | 1.6 | 0.00 | 0.00 | 0.00 | 72 | 1013.7 |
| 20260507050249 | 7 | 187 | 1.6 | 3.2 | 0.00 | 0.00 | 0.00 | 71 | 1013.6 |
| 20260507045746 | 7 | 230 | 0.0 | 1.6 | 0.00 | 0.00 | 0.00 | 69 | 1013.8 |
| 20260507045242 | 7 | 230 | 0.0 | 1.6 | 0.00 | 0.00 | 0.00 | 69 | 1013.6 |
| 20260507044740 | 7 | 201 | 0.0 | 1.6 | 0.00 | 0.00 | 0.00 | 68 | 1013.6 |
| 20260507044236 | 7 | 201 | 1.6 | 1.6 | 0.00 | 0.00 | 0.00 | 70 | 1013.5 |
| 20260507043732 | 7 | 200 | 0.0 | 1.6 | 0.00 | 0.00 | 0.00 | 70 | 1013.4 |
| 20260507043229 | 7 | 209 | 0.0 | 1.6 | 0.00 | 0.00 | 0.00 | 73 | 1013.5 |
| 20260507042725 | 7 | 214 | 0.0 | 0.0 | 0.00 | 0.00 | 0.00 | 75 | 1013.5 |
| 20260507042220 | 6 | 214 | 0.0 | 0.0 | 0.00 | 0.00 | 0.00 | 72 | 1013.7 |
| 20260507041718 | 6 | 214 | 0.0 | 0.0 | 0.00 | 0.00 | 0.00 | 70 | 1013.4 |
| 20260507041214 | 6 | 214 | 0.0 | 0.0 | 0.00 | 0.00 | 0.00 | 69 | 1013.5 |
| 20260507040712 | 6 | 214 | 0.0 | 0.0 | 0.00 | 0.00 | 0.00 | 68 | 1013.4 |
| 20260507040207 | 6 | 214 | 0.0 | 0.0 | 0.00 | 0.00 | 0.00 | 69 | 1013.5 |
| 20260507035704 | 6 | 214 | 0.0 | 0.0 | 0.00 | 0.00 | 0.00 | 69 | 1013.6 |
| 20260507035159 | 6 | 214 | 0.0 | 0.0 | 0.00 | 0.00 | 0.00 | 68 | 1013.5 |
| 20260507034656 | 6 | 214 | 0.0 | 1.6 | 0.00 | 0.00 | 0.00 | 68 | 1013.6 |
| 20260507034154 | 6 | 214 | 0.0 | 0.0 | 0.00 | 0.00 | 0.00 | 67 | 1013.6 |
| 20260507033653 | 7 | 214 | 0.0 | 0.0 | 0.00 | 0.00 | 0.00 | 66 | 1013.4 |
| 20260507033149 | 7 | 214 | 1.6 | 1.6 | 0.00 | 0.00 | 0.00 | 66 | 1013.4 |
| 20260507032647 | 7 | 214 | 0.0 | 0.0 | 0.00 | 0.00 | 0.00 | 65 | 1013.6 |
| 20260507032142 | 7 | 214 | 0.0 | 0.0 | 0.00 | 0.00 | 0.00 | 65 | 1013.3 |
| 20260507031640 | 7 | 214 | 1.6 | 1.6 | 0.00 | 0.00 | 0.00 | 63 | 1013.4 |
| 20260507031136 | 7 | 214 | 1.6 | 3.2 | 0.00 | 0.00 | 0.00 | 62 | 1013.4 |
| 20260507030633 | 8 | 213 | 1.6 | 1.6 | 0.00 | 0.00 | 0.00 | 60 | 1013.6 |
| 20260507030131 | 8 | 213 | 0.0 | 3.2 | 0.00 | 0.00 | 0.00 | 60 | 1013.5 |
| 20260507025628 | 8 | 210 | 1.6 | 1.6 | 0.00 | 0.00 | 0.00 | 60 | 1013.4 |
| 20260507025124 | 8 | 210 | 0.0 | 1.6 | 0.00 | 0.00 | 0.00 | 59 | 1013.4 |
| 20260507024622 | 8 | 209 | 1.6 | 1.6 | 0.00 | 0.00 | 0.00 | 58 | 1013.5 |
| 20260507024119 | 8 | 210 | 1.6 | 1.6 | 0.00 | 0.00 | 0.00 | 59 | 1013.6 |
| 20260507023615 | 8 | 210 | 0.0 | 1.6 | 0.00 | 0.00 | 0.00 | 60 | 1013.6 |
| 20260507023113 | 8 | 210 | 0.0 | 0.0 | 0.00 | 0.00 | 0.00 | 60 | 1013.5 |
| 20260507022609 | 8 | 203 | 0.0 | 1.6 | 0.00 | 0.00 | 0.00 | 57 | 1013.1 |
| 20260507022104 | 9 | 216 | 1.6 | 1.6 | 0.00 | 0.00 | 0.00 | 57 | 1013.2 |
| 20260507021601 | 9 | 217 | 1.6 | 1.6 | 0.00 | 0.00 | 0.00 | 56 | 1013.2 |
| 20260507021057 | 9 | 235 | 0.0 | 1.6 | 0.00 | 0.00 | 0.00 | 56 | 1013.2 |
| 20260507020555 | 9 | 203 | 1.6 | 3.2 | 0.00 | 0.00 | 0.00 | 56 | 1013.0 |
| 20260507020051 | 9 | 210 | 0.0 | 1.6 | 0.00 | 0.00 | 0.00 | 56 | 1013.1 |
| 20260507015550 | 9 | 201 | 0.0 | 1.6 | 0.00 | 0.00 | 0.00 | 56 | 1013.1 |
| 20260507015047 | 9 | 220 | 1.6 | 1.6 | 0.00 | 0.00 | 0.00 | 58 | 1013.0 |
| 20260507014543 | 9 | 220 | 0.0 | 1.6 | 0.00 | 0.00 | 0.00 | 57 | 1012.9 |
| 20260507014039 | 9 | 221 | 0.0 | 1.6 | 0.00 | 0.00 | 0.00 | 58 | 1012.8 |
| 20260507013536 | 9 | 226 | 1.6 | 1.6 | 0.00 | 0.00 | 0.00 | 58 | 1012.9 |
| 20260507013033 | 10 | 226 | 0.0 | 0.0 | 0.00 | 0.00 | 0.00 | 56 | 1012.9 |
| 20260507012531 | 10 | 226 | 0.0 | 0.0 | 0.00 | 0.00 | 0.00 | 56 | 1013.1 |
| 20260507012026 | 10 | 226 | 0.0 | 1.6 | 0.00 | 0.00 | 0.00 | 54 | 1012.8 |
| 20260507011524 | 10 | 229 | 0.0 | 0.0 | 0.00 | 0.00 | 0.00 | 54 | 1012.8 |
| 20260507011020 | 10 | 206 | 0.0 | 1.6 | 0.00 | 0.00 | 0.00 | 54 | 1012.8 |
| 20260507010515 | 10 | 203 | 1.6 | 1.6 | 0.00 | 0.00 | 0.00 | 52 | 1012.6 |
| 20260507010012 | 10 | 198 | 0.0 | 3.2 | 0.00 | 0.00 | 0.00 | 51 | 1012.8 |
| 20260507005509 | 10 | 204 | 0.0 | 1.6 | 0.00 | 0.00 | 0.00 | 52 | 1012.6 |
| 20260507005005 | 10 | 203 | 1.6 | 1.6 | 0.00 | 0.00 | 0.00 | 51 | 1012.7 |
| 20260507004502 | 10 | 216 | 1.6 | 1.6 | 0.00 | 0.00 | 0.00 | 51 | 1012.6 |
| 20260507004000 | 10 | 215 | 0.0 | 1.6 | 0.00 | 0.00 | 0.00 | 51 | 1012.5 |
| 20260507003455 | 10 | 215 | 0.0 | 1.6 | 0.00 | 0.00 | 0.00 | 51 | 1012.5 |
| 20260507002950 | 10 | 217 | 0.0 | 1.6 | 0.00 | 0.00 | 0.00 | 49 | 1012.6 |
| 20260507002447 | 10 | 213 | 0.0 | 3.2 | 0.00 | 0.00 | 0.00 | 49 | 1012.5 |
| 20260507001944 | 10 | 206 | 0.0 | 0.0 | 0.00 | 0.00 | 0.00 | 49 | 1012.5 |
| 20260507001440 | 10 | 207 | 1.6 | 1.6 | 0.00 | 0.00 | 0.00 | 48 | 1012.3 |
| 20260507000938 | 10 | 206 | 0.0 | 0.0 | 0.00 | 0.00 | 0.00 | 49 | 1012.4 |
| 20260507000435 | 10 | 201 | 1.6 | 3.2 | 0.00 | 0.00 | 0.00 | 51 | 1012.5 |
| 20260506235929 | 11 | 222 | 0.0 | 0.0 | 0.00 | 0.00 | 0.00 | 48 | 1012.3 |
| 20260506235427 | 11 | 204 | 0.0 | 1.6 | 0.00 | 0.00 | 0.00 | 47 | 1012.2 |
| 20260506234921 | 11 | 221 | 0.0 | 1.6 | 0.00 | 0.00 | 0.00 | 48 | 1012.3 |
| 20260506234420 | 11 | 225 | 0.0 | 1.6 | 0.00 | 0.00 | 0.00 | 46 | 1012.5 |
| 20260506233917 | 11 | 184 | 1.6 | 3.2 | 0.00 | 0.00 | 0.00 | 46 | 1012.4 |
| 20260506233414 | 11 | 219 | 0.0 | 0.0 | 0.00 | 0.00 | 0.00 | 47 | 1012.2 |
| 20260506232910 | 11 | 292 | 3.2 | 8.0 | 0.00 | 0.00 | 0.00 | 49 | 1012.2 |
| 20260506232406 | 11 | 220 | 0.0 | 1.6 | 0.00 | 0.00 | 0.00 | 46 | 1012.2 |
| 20260506231902 | 11 | 215 | 1.6 | 1.6 | 0.00 | 0.00 | 0.00 | 48 | 1012.3 |
| 20260506231400 | 11 | 345 | 4.8 | 4.8 | 0.00 | 0.00 | 0.00 | 49 | 1012.3 |
| 20260506230857 | 11 | 283 | 1.6 | 3.2 | 0.00 | 0.00 | 0.00 | 47 | 1012.1 |
| 20260506230354 | 11 | 235 | 1.6 | 4.8 | 0.00 | 0.00 | 0.00 | 46 | 1012.4 |
| 20260506225850 | 11 | 346 | 4.8 | 8.0 | 0.00 | 0.00 | 0.00 | 48 | 1012.2 |
| 20260506225348 | 11 | 328 | 6.4 | 9.7 | 0.00 | 0.00 | 0.00 | 44 | 1012.5 |
| 20260506224844 | 11 | 243 | 3.2 | 4.8 | 0.00 | 0.00 | 0.00 | 43 | 1012.4 |
| 20260506224342 | 11 | 287 | 6.4 | 8.0 | 0.00 | 0.00 | 0.00 | 43 | 1012.4 |
| 20260506223838 | 11 | 159 | 1.6 | 4.8 | 0.00 | 0.00 | 0.00 | 44 | 1012.3 |
| 20260506223333 | 11 | 231 | 1.6 | 4.8 | 0.00 | 0.00 | 0.00 | 46 | 1012.3 |
| 20260506222831 | 12 | 329 | 4.8 | 4.8 | 0.00 | 0.00 | 0.00 | 45 | 1012.4 |
| 20260506222326 | 12 | 0 | 6.4 | 11.3 | 0.00 | 0.00 | 0.00 | 46 | 1012.3 |
| 20260506221825 | 12 | 17 | 4.8 | 11.3 | 0.00 | 0.00 | 0.00 | 45 | 1012.3 |
| 20260506221322 | 12 | 33 | 3.2 | 9.7 | 0.00 | 0.00 | 0.00 | 44 | 1012.1 |
| 20260506220819 | 12 | 19 | 6.4 | 9.7 | 0.00 | 0.00 | 0.00 | 45 | 1012.5 |
| 20260506220314 | 12 | 264 | 1.6 | 9.7 | 0.00 | 0.00 | 0.00 | 46 | 1012.3 |
| 20260506215811 | 12 | 348 | 4.8 | 17.7 | 0.00 | 0.00 | 0.00 | 46 | 1012.5 |
| 20260506215307 | 12 | 76 | 8.0 | 9.7 | 0.00 | 0.00 | 0.00 | 45 | 1012.2 |
| 20260506214803 | 12 | 335 | 3.2 | 3.2 | 0.00 | 0.00 | 0.00 | 43 | 1012.5 |
| 20260506214300 | 12 | 1 | 11.3 | 14.5 | 0.00 | 0.00 | 0.00 | 43 | 1012.3 |
| 20260506213758 | 12 | 99 | 3.2 | 9.7 | 0.00 | 0.00 | 0.00 | 42 | 1012.4 |
| 20260506213254 | 12 | 358 | 4.8 | 9.7 | 0.00 | 0.00 | 0.00 | 42 | 1012.5 |
| 20260506212752 | 12 | 190 | 3.2 | 14.5 | 0.00 | 0.00 | 0.00 | 43 | 1012.0 |
| 20260506212248 | 12 | 341 | 3.2 | 12.9 | 0.00 | 0.00 | 0.00 | 45 | 1012.3 |
| 20260506211743 | 12 | 294 | 3.2 | 12.9 | 0.00 | 0.00 | 0.00 | 42 | 1012.2 |
| 20260506211240 | 12 | 210 | 3.2 | 8.0 | 0.00 | 0.00 | 0.00 | 42 | 1012.4 |
| 20260506210737 | 12 | 352 | 9.7 | 16.1 | 0.00 | 0.00 | 0.00 | 45 | 1012.3 |
| 20260506210233 | 12 | 128 | 3.2 | 14.5 | 0.00 | 0.00 | 0.00 | 43 | 1012.6 |
| 20260506205731 | 12 | 55 | 4.8 | 4.8 | 0.00 | 0.00 | 0.00 | 44 | 1012.4 |
| 20260506205226 | 12 | 5 | 4.8 | 12.9 | 0.00 | 0.00 | 0.00 | 42 | 1012.6 |
| 20260506204723 | 12 | 53 | 6.4 | 9.7 | 0.00 | 0.00 | 0.00 | 44 | 1012.6 |
| 20260506204221 | 12 | 277 | 4.8 | 8.0 | 0.00 | 0.00 | 0.00 | 48 | 1012.7 |
| 20260506203719 | 11 | 357 | 9.7 | 17.7 | 0.00 | 0.00 | 0.00 | 44 | 1012.6 |
| 20260506203215 | 12 | 127 | 6.4 | 9.7 | 0.00 | 0.00 | 0.00 | 46 | 1012.4 |
| 20260506202714 | 12 | 7 | 11.3 | 14.5 | 0.00 | 0.00 | 0.00 | 44 | 1012.7 |
| 20260506202209 | 12 | 212 | 0.0 | 4.8 | 0.00 | 0.00 | 0.00 | 45 | 1012.7 |
| 20260506201707 | 12 | 102 | 4.8 | 9.7 | 0.00 | 0.00 | 0.00 | 45 | 1012.8 |
| 20260506201203 | 12 | 137 | 6.4 | 11.3 | 0.00 | 0.00 | 0.00 | 44 | 1012.8 |
| 20260506200700 | 12 | 5 | 6.4 | 11.3 | 0.00 | 0.00 | 0.00 | 45 | 1012.9 |
| 20260506200157 | 11 | 354 | 6.4 | 12.9 | 0.00 | 0.00 | 0.00 | 44 | 1012.9 |
| 20260506195653 | 12 | 227 | 3.2 | 9.7 | 0.00 | 0.00 | 0.00 | 44 | 1012.8 |
| 20260506195149 | 12 | 223 | 4.8 | 8.0 | 0.00 | 0.00 | 0.00 | 43 | 1013.0 |
| 20260506194647 | 12 | 149 | 11.3 | 12.9 | 0.00 | 0.00 | 0.00 | 43 | 1013.1 |
| 20260506194143 | 11 | 356 | 9.7 | 16.1 | 0.00 | 0.00 | 0.00 | 43 | 1012.9 |
| 20260506193641 | 11 | 351 | 6.4 | 9.7 | 0.00 | 0.00 | 0.00 | 48 | 1013.0 |
| 20260506193138 | 11 | 330 | 6.4 | 12.9 | 0.00 | 0.00 | 0.00 | 47 | 1012.8 |
| 20260506192634 | 12 | 8 | 11.3 | 16.1 | 0.00 | 0.00 | 0.00 | 43 | 1013.1 |
| 20260506192131 | 11 | 18 | 8.0 | 14.5 | 0.00 | 0.00 | 0.00 | 46 | 1012.9 |
| 20260506191628 | 11 | 9 | 9.7 | 12.9 | 0.00 | 0.00 | 0.00 | 42 | 1013.1 |
| 20260506191123 | 11 | 4 | 14.5 | 17.7 | 0.00 | 0.00 | 0.00 | 42 | 1013.1 |
| 20260506190621 | 11 | 326 | 14.5 | 16.1 | 0.00 | 0.00 | 0.00 | 46 | 1012.9 |
| 20260506190118 | 11 | 22 | 6.4 | 9.7 | 0.00 | 0.00 | 0.00 | 43 | 1012.7 |
| 20260506185615 | 11 | 6 | 14.5 | 20.9 | 0.00 | 0.00 | 0.00 | 43 | 1012.9 |
| 20260506185111 | 12 | 31 | 6.4 | 9.7 | 0.00 | 0.00 | 0.00 | 42 | 1013.1 |
| 20260506184609 | 11 | 350 | 9.7 | 14.5 | 0.00 | 0.00 | 0.00 | 45 | 1013.1 |
| 20260506184106 | 11 | 354 | 4.8 | 12.9 | 0.00 | 0.00 | 0.00 | 44 | 1013.0 |
| 20260506183602 | 11 | 303 | 11.3 | 14.5 | 0.00 | 0.00 | 0.00 | 45 | 1013.1 |
| 20260506183058 | 11 | 303 | 12.9 | 16.1 | 0.00 | 0.00 | 0.00 | 45 | 1013.2 |
| 20260506182556 | 12 | 227 | 3.2 | 9.7 | 0.00 | 0.00 | 0.00 | 45 | 1012.9 |
| 20260506182053 | 11 | 359 | 8.0 | 14.5 | 0.00 | 0.00 | 0.00 | 44 | 1013.2 |
| 20260506181551 | 11 | 329 | 14.5 | 20.9 | 0.00 | 0.00 | 0.00 | 46 | 1013.1 |
| 20260506181047 | 11 | 30 | 4.8 | 14.5 | 0.00 | 0.00 | 0.00 | 46 | 1013.1 |
| 20260506180544 | 11 | 342 | 4.8 | 9.7 | 0.00 | 0.00 | 0.00 | 44 | 1013.1 |
| 20260506180041 | 12 | 212 | 1.6 | 4.8 | 0.00 | 0.00 | 0.00 | 45 | 1013.2 |
| 20260506175537 | 11 | 263 | 8.0 | 16.1 | 0.00 | 0.00 | 0.00 | 45 | 1013.1 |
| 20260506175033 | 11 | 246 | 3.2 | 14.5 | 0.00 | 0.00 | 0.00 | 52 | 1013.2 |
| 20260506174532 | 12 | 6 | 9.7 | 12.9 | 0.00 | 0.00 | 0.00 | 48 | 1013.1 |
| 20260506174028 | 11 | 332 | 4.8 | 8.0 | 0.00 | 0.00 | 0.00 | 47 | 1013.0 |
| 20260506173526 | 12 | 327 | 3.2 | 12.9 | 0.00 | 0.00 | 0.00 | 44 | 1013.1 |
| 20260506173022 | 12 | 222 | 3.2 | 12.9 | 0.00 | 0.00 | 0.00 | 44 | 1012.9 |
| 20260506172520 | 11 | 285 | 6.4 | 14.5 | 0.00 | 0.00 | 0.00 | 48 | 1013.1 |
| 20260506172016 | 11 | 349 | 8.0 | 12.9 | 0.00 | 0.00 | 0.00 | 47 | 1013.1 |
| 20260506171514 | 11 | 3 | 11.3 | 14.5 | 0.00 | 0.00 | 0.00 | 46 | 1013.1 |
| 20260506171010 | 11 | 356 | 12.9 | 20.9 | 0.00 | 0.00 | 0.00 | 47 | 1013.1 |
| 20260506170508 | 11 | 253 | 3.2 | 9.7 | 0.00 | 0.00 | 0.00 | 45 | 1013.4 |
| 20260506170000 | 11 | 4 | 8.0 | 12.9 | 0.00 | 0.00 | 0.00 | 46 | 1013.2 |
| 20260506165458 | 11 | 190 | 6.4 | 17.7 | 0.00 | 0.00 | 0.00 | 45 | 1013.4 |
| 20260506164954 | 11 | 8 | 11.3 | 14.5 | 0.00 | 0.00 | 0.00 | 45 | 1013.4 |
| 20260506164451 | 11 | 340 | 4.8 | 12.9 | 0.00 | 0.00 | 0.00 | 45 | 1013.4 |
| 20260506163949 | 11 | 301 | 6.4 | 12.9 | 0.00 | 0.00 | 0.00 | 44 | 1013.3 |
| 20260506163444 | 11 | 356 | 8.0 | 12.9 | 0.00 | 0.00 | 0.00 | 44 | 1013.4 |
| 20260506162938 | 11 | 14 | 8.0 | 11.3 | 0.00 | 0.00 | 0.00 | 44 | 1013.4 |
| 20260506162436 | 10 | 247 | 3.2 | 14.5 | 0.00 | 0.00 | 0.00 | 52 | 1013.2 |
| 20260506161928 | 11 | 10 | 8.0 | 11.3 | 0.00 | 0.00 | 0.00 | 45 | 1013.4 |
| 20260506161426 | 11 | 71 | 4.8 | 12.9 | 0.00 | 0.00 | 0.00 | 48 | 1013.5 |
| 20260506160923 | 11 | 319 | 6.4 | 8.0 | 0.00 | 0.00 | 0.00 | 44 | 1013.5 |
| 20260506160420 | 11 | 88 | 4.8 | 4.8 | 0.00 | 0.00 | 0.00 | 47 | 1013.4 |
| 20260506155918 | 10 | 11 | 6.4 | 12.9 | 0.00 | 0.00 | 0.00 | 47 | 1013.3 |
| 20260506155415 | 10 | 3 | 9.7 | 11.3 | 0.00 | 0.00 | 0.00 | 48 | 1013.5 |
| 20260506153537 | 10 | 327 | 6.4 | 8.0 | 0.00 | 0.00 | 0.00 | 46 | 1013.7 |
| 20260506153034 | 11 | 81 | 6.4 | 8.0 | 0.00 | 0.00 | 0.00 | 45 | 1013.3 |
| 20260506152531 | 11 | 210 | 0.0 | 3.2 | 0.00 | 0.00 | 0.00 | 44 | 1013.6 |
| 20260506152029 | 10 | 287 | 6.4 | 8.0 | 0.00 | 0.00 | 0.00 | 44 | 1013.6 |
| 20260506151527 | 10 | 350 | 8.0 | 9.7 | 0.00 | 0.00 | 0.00 | 49 | 1013.8 |
| 20260506151024 | 10 | 32 | 4.8 | 9.7 | 0.00 | 0.00 | 0.00 | 48 | 1013.5 |
| 20260506150520 | 10 | 354 | 8.0 | 11.3 | 0.00 | 0.00 | 0.00 | 47 | 1013.7 |
| 20260506150017 | 9 | 279 | 3.2 | 3.2 | 0.00 | 0.00 | 0.00 | 48 | 1013.7 |
| 20260506145514 | 10 | 349 | 4.8 | 8.0 | 0.00 | 0.00 | 0.00 | 46 | 1013.7 |
| 20260506145011 | 10 | 235 | 1.6 | 4.8 | 0.00 | 0.00 | 0.00 | 48 | 1013.8 |
| 20260506144508 | 10 | 230 | 1.6 | 12.9 | 0.00 | 0.00 | 0.00 | 45 | 1013.7 |
| 20260506144005 | 9 | 228 | 3.2 | 3.2 | 0.00 | 0.00 | 0.00 | 48 | 1013.6 |
| 20260506143503 | 10 | 0 | 9.7 | 11.3 | 0.00 | 0.00 | 0.00 | 49 | 1013.5 |
| 20260506143001 | 9 | 327 | 4.8 | 8.0 | 0.00 | 0.00 | 0.00 | 48 | 1013.7 |
| 20260506142458 | 10 | 248 | 1.6 | 4.8 | 0.00 | 0.00 | 0.00 | 47 | 1013.4 |
| 20260506141956 | 8 | 249 | 1.6 | 3.2 | 0.00 | 0.00 | 0.00 | 48 | 1013.5 |
| 20260506141454 | 10 | 0 | 8.0 | 12.9 | 0.00 | 0.00 | 0.00 | 47 | 1013.3 |
| 20260506140952 | 9 | 13 | 4.8 | 8.0 | 0.00 | 0.00 | 0.00 | 50 | 1013.3 |
| 20260506140449 | 10 | 272 | 1.6 | 3.2 | 0.00 | 0.00 | 0.00 | 47 | 1013.4 |
| 20260506135945 | 9 | 289 | 6.4 | 8.0 | 0.00 | 0.00 | 0.00 | 51 | 1013.5 |
| 20260506135443 | 9 | 223 | 0.0 | 0.0 | 0.00 | 0.00 | 0.00 | 53 | 1013.5 |
| 20260506134938 | 8 | 359 | 8.0 | 8.0 | 0.00 | 0.00 | 0.00 | 54 | 1013.5 |
| 20260506134435 | 8 | 353 | 4.8 | 9.7 | 0.00 | 0.00 | 0.00 | 54 | 1013.5 |
| 20260506133932 | 8 | 242 | 1.6 | 8.0 | 0.00 | 0.00 | 0.00 | 54 | 1013.3 |
| 20260506133429 | 8 | 235 | 1.6 | 4.8 | 0.00 | 0.00 | 0.00 | 56 | 1013.4 |
| 20260506132926 | 8 | 225 | 0.0 | 1.6 | 0.00 | 0.00 | 0.00 | 58 | 1013.3 |
| 20260506132423 | 8 | 27 | 1.6 | 9.7 | 0.00 | 0.00 | 0.00 | 57 | 1013.5 |
| 20260506131920 | 8 | 48 | 4.8 | 8.0 | 0.00 | 0.00 | 0.00 | 58 | 1013.2 |
| 20260506131417 | 8 | 29 | 4.8 | 9.7 | 0.00 | 0.00 | 0.00 | 58 | 1013.3 |
| 20260506130914 | 8 | 7 | 9.7 | 11.3 | 0.00 | 0.00 | 0.00 | 60 | 1013.6 |
| 20260506130410 | 7 | 252 | 1.6 | 4.8 | 0.00 | 0.00 | 0.00 | 62 | 1013.3 |
| 20260506125909 | 7 | 340 | 6.4 | 9.7 | 0.00 | 0.00 | 0.00 | 65 | 1013.4 |